Regional Weather Roundup
Issued by NWS Cleveland, OH

Home | Current Version | Previous Version | Graphics & Text | Print | Product List | Glossary On
Versions: 1 2 3 4 5 6 7 8 9 10 11 12 13 14 15 16 17 18 19 20 21 22 23 24 25 26 27 28 29 30 31 32 33 34 35 36 37 38 39 40 41 42 43 44 45 46 47 48 49 50
000
ASUS41 KCLE 292002
RWRCLE
OHIO REGIONAL WEATHER ROUNDUP
NATIONAL WEATHER SERVICE CLEVELAND, OH
400 PM EDT SUN MAR 29 2015

NOTE: "FAIR" INDICATES FEW OR NO CLOUDS BELOW 12,000 FEET WITH NO
SIGNIFICANT WEATHER AND/OR OBSTRUCTIONS TO VISIBILITY.

OHZ001>008-015>018-024>027-034-035-043-044-292100-
   NORTHWEST OHIO

CITY           SKY/WX    TMP DP  RH WIND       PRES   REMARKS
DEFIANCE         N/A     44  21  40 S20G29    29.96
FINDLAY        CLOUDY    45  19  35 S26G35    30.00F
TOLEDO EXPRESS CLOUDY    44  15  31 S21G35    29.96F
TOLEDO EXEC    CLOUDY    46  18  32 S23G32    29.98F
LIMA           CLOUDY    46  19  34 S21G32    30.00F
$$

OHZ009>014-019>023-028>033-038-089-292100-
   NORTHEAST OHIO

CITY           SKY/WX    TMP DP  RH WIND       PRES   REMARKS
CLE-HOPKINS    CLOUDY    43  16  33 S18G28    30.09F
CLE-LAKEFRONT  CLOUDY    45  14  28 S14G25    30.06F
CUY CO. ARPT   PTSUNNY   45  18  33 S16G26    30.09F
LORAIN-ELYRIA  LGT RAIN  43  17  35 S23G35    30.05F
ASHTABULA      MOSUNNY   41  14  33 S23G35    30.08F
AKRON-CANTON   CLOUDY    44  13  28 S17G26    30.11F
WOOSTER        CLOUDY    41  16  36 S18G30    30.09F
MANSFIELD      CLOUDY    41  16  36 S21G32    30.06F
YOUNGSTOWN     PTSUNNY   42  11  28 S14G23    30.10F
$$

OHZ042-051>053-060>062-070>072-077>081-292100-
  SOUTHWEST OHIO

CITY           SKY/WX    TMP DP  RH WIND       PRES   REMARKS
CINC-COVINGTON CLOUDY    49  14  24 S18G24    30.10F
CINC-LUNKEN    CLOUDY    49  15  25 S15G26    30.12F
HAMILTON       CLOUDY    50  10  20 S10G21    30.10F
DAYTON         CLOUDY    47  14  26 S17G26    30.05F
WRIGHT-PAT AFB CLOUDY    48  13  25 S21G28    30.08F
DAYTON GENERAL CLOUDY    47  12  24 S21G28    30.08F
WILMINGTON     PTSUNNY   46  17  31 S22G28    30.10F
$$

OHZ036-037-039>041-045>050-054>059-063>069-073>076-082>088-292100-
  CENTRAL AND SOUTHEAST OHIO

CITY           SKY/WX    TMP DP  RH WIND       PRES   REMARKS
COLUMBUS       CLOUDY    45  10  24 S17G24    30.12F
OSU AIRPORT    PTSUNNY   44  13  28 S16G25    30.10F
BOLTON FIELD   NOT AVBL
RICKENBACK AFB NOT AVBL
NEWARK         PTSUNNY   46  11  24 S17G29    30.11F
MARION         PTSUNNY   44  14  29 S22G36    30.08F
LANCASTER      PTSUNNY   48   9  20 S16       30.13F
ZANESVILLE     PTSUNNY   45  11  25 S13G23    30.15F
NEW PHILLY     PTSUNNY   44  11  26 S15       30.16F
$$


USA.gov is the U.S. government's official web portal to all federal, state and local government web resources and services.